Regional Weather Roundup
Issued by NWS Newport/Morehead, NC

Current Version | Previous Version | Graphics & Text | Print | Product List | Glossary On
Versions: 1 2 3 4 5 6 7 8 9 10 11 12 13 14 15 16 17 18 19 20 21 22 23 24 25 26 27 28 29 30 31 32 33 34 35 36 37 38 39 40 41 42 43 44 45 46 47 48 49 50
000 ASUS42 KMHX 041013 RWRMHX WEATHER ROUNDUP FOR EASTERN NORTH CAROLINA NATIONAL WEATHER SERVICE NEWPORT/MOREHEAD CITY NC 500 AM EST SUN DEC 04 2016 NOTE: "FAIR" INDICATES FEW OR NO CLOUDS BELOW 12,000 FEET WITH NO SIGNIFICANT WEATHER AND/OR OBSTRUCTIONS TO VISIBILITY NCZ015>017-031-032-045>047-102-103-041100- NORTH COAST CITY SKY/WX TMP DP RH WIND PRES REMARKS EDENTON PTCLDY 41 35 79 CALM 30.26S ELIZABETH CITY CLOUDY 42 34 73 N8 30.26R KITTY HAWK MOSUNNY 47 38 72 N6 30.22S MANTEO CLOUDY 45 38 76 N5 30.24S $$ NCZ045>047-081-094-103-104-041100- CENTRAL COAST CITY SKY/WX TMP DP RH WIND PRES REMARKS FRISCO CLOUDY 49 39 68 VRB7 30.23R $$ NCZ095-097-098-100-101-041100- SOUTHERN COAST CITY SKY/WX TMP DP RH WIND PRES REMARKS BEAUFORT CLOUDY 47 39 74 VRB6 30.24S CEDAR ISLAND NOT AVBL JACKSONVILLE CLOUDY 45 36 70 N5 30.24F PINEY ISLAND CLOUDY N/A N/A N/A NE9 30.23F WILMINGTON CLOUDY 45 36 70 NE5 30.25R $$ NCZ011>013-027>030-043-044-078>080-089-090>093-098-041100- COASTAL PLAIN CITY SKY/WX TMP DP RH WIND PRES REMARKS AHOSKIE MOCLDY 38 32 78 CALM 30.28S CLINTON CLOUDY 46 35 67 CALM 30.26S ELIZABETHTOWN CLOUDY 44 38 78 CALM 30.25R GOLDSBORO CLOUDY 44 34 67 N5 30.25R GREENVILLE PTCLDY 41 36 81 CALM 30.27S HAVELOCK CLOUDY 47 37 68 N8 30.25S KENANSVILLE CLOUDY 43 36 75 NE3 30.25S KINSTON N/A 43 35 73 CALM 30.26F NEW BERN CLOUDY 43 35 73 N5 30.26S RICHLANDS CLOUDY 43 37 79 N5 30.25S ROCKY MOUNT PTCLDY 41 34 76 NE5 30.28R WASHINGTON CLOUDY 40 34 79 CALM 30.26S WHITEVILLE CLOUDY 46 38 72 CALM 30.24R $$ AMZ130-135-150-152-154-156-158-170-250-252-270-ANZ085-086-088-633-658-670-041100- MARINE OBSERVATIONS STATION/POSITION TIME TEMP WIND PRES WAVE SWELL AIR SEA DIR/SP/G HT/PER HT/PER (UTC) (F) (DEG/KT/KT) (MB) (FT/S) (FT/S) CHESAPEAKE LIGHT NOT AVBL 64 E VA BEACH 0950 50 60 350/ 16/ 19 1023.0 5/ 6 DUCK 0948 48 54 10/ 11/ 16 1023.4 2 E DUCK NOT AVBL OREGON INLET 0936 48 53 360/ 9/ 13 1023.5 13E OREGON INLT 0930 60 N/A 5/ 7 5/ 7 HATTERAS CG 0948 49 56 10/ 15/ 17 1023.3 DIAMOND BUOY 0950 54 75 10/ 14/ 19 1023.2 5/ 9 5/ 9 CAPE LOOKOUT 1000 49 10/ 10/ 12 1023.4 BEAUFORT LAB 0948 47 55 20/ 6/ 10 1022.9 30 SE NEW RVR IN 0908 54 70 40/ 12/ 17 1023.3 30 SE NEW RVR IN NOT AVBL 27 SE WRIGHTSVLE 0908 55 68 50/ 12/ 17 1022.7 5 SE WRIGHTSVLE 0908 51 63 40/ 16/ 25 1023.1 225 S CAPE HAT 0950 64 73 50/ 12/ 16 1020.6 5/ 8 5/ 8 41 SE CHARLESTON 0950 62 74 40/ 6/ 10 1022.2 3/ 6 2/ 6 $$

USA.gov is the U.S. government's official web portal to all federal, state and local government web resources and services.